Time,TemperatureF,DewpointF,PressureIn,WindDirection,WindDirectionDegrees,WindSpeedMPH,WindSpeedGustMPH,Humidity,HourlyPrecipIn,Conditions,Clouds,dailyrainin,SoftwareType,DateUTC
2013-01-30 00:00:00,52.9,52.3,29.31,SSE,158,1.0,4.0,98,0.04,,---,0.02,VWS V14.01,2013-01-30 06:00:00,
2013-01-30 00:30:00,52.9,52.3,29.34,South,180,2.0,6.0,98,0.03,,---,0.03,VWS V14.01,2013-01-30 06:30:00,
2013-01-30 01:00:00,52.6,52.0,29.35,South,180,2.0,7.0,98,0.07,,---,0.07,VWS V14.01,2013-01-30 07:00:00,
2013-01-30 01:30:00,52.4,51.8,29.35,South,180,2.0,7.0,98,0.06,,---,0.08,VWS V14.01,2013-01-30 07:30:00,
2013-01-30 02:00:00,52.4,51.8,29.40,SSW,202,2.0,7.0,98,0.08,,---,0.11,VWS V14.01,2013-01-30 08:00:00,
2013-01-30 02:30:00,51.9,51.4,29.34,SSW,202,1.0,5.0,98,0.05,,---,0.12,VWS V14.01,2013-01-30 08:30:00,
2013-01-30 03:00:00,51.4,50.9,29.29,SE,135,0.0,3.0,98,0.04,,---,0.12,VWS V14.01,2013-01-30 09:00:00,
2013-01-30 03:30:00,51.2,50.7,29.26,SSE,158,1.0,5.0,98,0.01,,---,0.12,VWS V14.01,2013-01-30 09:30:00,
2013-01-30 04:00:00,51.1,50.6,29.28,South,180,1.0,6.0,98,0.00,,---,0.12,VWS V14.01,2013-01-30 10:00:00,
2013-01-30 04:30:00,51.0,50.5,29.28,South,180,2.0,7.0,98,0.00,,---,0.12,VWS V14.01,2013-01-30 10:30:00,
2013-01-30 05:00:00,50.7,50.2,29.28,South,180,2.0,10.0,98,0.00,,---,0.12,VWS V14.01,2013-01-30 11:00:00,
2013-01-30 05:30:00,50.2,49.7,29.27,South,180,2.0,9.0,98,0.00,,---,0.12,VWS V14.01,2013-01-30 11:30:00,
2013-01-30 06:00:00,50.0,49.5,29.27,South,180,3.0,7.0,98,0.00,,---,0.12,VWS V14.01,2013-01-30 12:00:00,
2013-01-30 06:30:00,50.1,49.6,29.28,South,180,3.0,9.0,98,0.00,,---,0.12,VWS V14.01,2013-01-30 12:30:00,
2013-01-30 07:00:00,49.9,49.1,29.27,South,180,2.0,7.0,97,0.00,,---,0.12,VWS V14.01,2013-01-30 13:00:00,
2013-01-30 07:30:00,47.9,46.5,29.31,SSW,202,2.0,15.0,95,0.02,,---,0.14,VWS V14.01,2013-01-30 13:30:00,
2013-01-30 08:00:00,43.9,42.6,29.33,NW,315,3.0,12.0,95,0.03,,---,0.15,VWS V14.01,2013-01-30 14:00:00,
2013-01-30 08:30:00,43.4,42.1,29.34,NNW,338,2.0,11.0,95,0.03,,---,0.15,VWS V14.01,2013-01-30 14:30:00,
2013-01-30 09:00:00,42.9,41.0,29.35,NW,315,2.0,8.0,93,0.01,,---,0.15,VWS V14.01,2013-01-30 15:00:00,
2013-01-30 09:30:00,42.7,40.3,29.36,NW,315,3.0,10.0,91,0.00,,---,0.15,VWS V14.01,2013-01-30 15:30:00,
2013-01-30 10:00:00,43.6,40.0,29.35,NW,315,2.0,12.0,87,0.00,,---,0.15,VWS V14.01,2013-01-30 16:00:00,
2013-01-30 10:30:00,41.1,38.1,29.37,NW,315,2.0,11.0,89,0.00,,---,0.15,VWS V14.01,2013-01-30 16:30:00,
2013-01-30 11:00:00,40.9,37.3,29.38,NW,315,3.0,10.0,87,0.00,,---,0.15,VWS V14.01,2013-01-30 17:00:00,
2013-01-30 11:30:00,41.5,37.6,29.38,NW,315,3.0,13.0,86,0.00,,---,0.15,VWS V14.01,2013-01-30 17:30:00,
2013-01-30 12:00:00,41.8,36.4,29.38,NNW,338,4.0,13.0,81,0.00,,---,0.15,VWS V14.01,2013-01-30 18:00:00,
2013-01-30 12:30:00,37.1,33.3,29.41,NW,315,4.0,17.0,86,0.00,,---,0.15,VWS V14.01,2013-01-30 18:30:00,
2013-01-30 13:00:00,34.7,32.1,29.42,NW,315,3.0,15.0,90,0.00,,---,0.15,VWS V14.01,2013-01-30 19:00:00,
2013-01-30 13:30:00,34.1,30.6,29.44,NW,315,4.0,14.0,87,0.00,,---,0.15,VWS V14.01,2013-01-30 19:30:00,
2013-01-30 14:00:00,33.4,29.7,29.47,NW,315,3.0,16.0,86,0.00,,---,0.15,VWS V14.01,2013-01-30 20:00:00,
2013-01-30 14:30:00,32.8,28.2,29.49,NW,315,4.0,19.0,83,0.00,,---,0.15,VWS V14.01,2013-01-30 20:30:00,
2013-01-30 15:00:00,32.3,27.1,29.51,NW,315,4.0,13.0,81,0.00,,---,0.15,VWS V14.01,2013-01-30 21:00:00,
2013-01-30 15:30:00,32.2,26.4,29.54,NW,315,3.0,16.0,79,0.00,,---,0.15,VWS V14.01,2013-01-30 21:30:00,
2013-01-30 16:00:00,31.8,26.4,29.55,NW,315,3.0,13.0,80,0.00,,---,0.15,VWS V14.01,2013-01-30 22:00:00,
2013-01-30 16:30:00,31.6,25.9,29.57,NW,315,3.0,13.0,79,0.00,,---,0.15,VWS V14.01,2013-01-30 22:30:00,
2013-01-30 17:00:00,31.4,25.4,29.60,NW,315,3.0,17.0,78,0.00,,---,0.15,VWS V14.01,2013-01-30 23:00:00,
2013-01-30 17:30:00,31.2,25.1,29.61,NW,315,3.0,13.0,78,0.00,,---,0.15,VWS V14.01,2013-01-30 23:30:00,
2013-01-30 18:00:00,30.5,25.1,29.64,NW,315,4.0,14.0,80,0.00,,---,0.15,VWS V14.01,2013-01-31 00:00:00,
2013-01-30 18:30:00,30.3,24.0,29.67,NW,315,3.0,14.0,77,0.00,,---,0.15,VWS V14.01,2013-01-31 00:30:00,
2013-01-30 19:00:00,29.1,23.1,29.69,NW,315,4.0,18.0,78,0.00,,---,0.15,VWS V14.01,2013-01-31 01:00:00,
2013-01-30 19:30:00,29.3,22.4,29.71,NW,315,4.0,14.0,75,0.00,,---,0.15,VWS V14.01,2013-01-31 01:30:00,
2013-01-30 20:00:00,29.4,21.2,29.73,NW,315,4.0,16.0,71,0.00,,---,0.15,VWS V14.01,2013-01-31 02:00:00,
2013-01-30 20:30:00,29.3,21.4,29.74,NW,315,3.0,14.0,72,0.00,,---,0.15,VWS V14.01,2013-01-31 02:30:00,
2013-01-30 21:00:00,29.3,21.4,29.75,NW,315,3.0,15.0,72,0.00,,---,0.15,VWS V14.01,2013-01-31 03:00:00,
2013-01-30 21:30:00,29.1,19.9,29.77,NW,315,4.0,19.0,68,0.00,,---,0.15,VWS V14.01,2013-01-31 03:30:00,
2013-01-30 22:00:00,28.8,19.9,29.78,NW,315,3.0,16.0,69,0.00,,---,0.15,VWS V14.01,2013-01-31 04:00:00,
2013-01-30 22:30:00,28.5,20.3,29.80,NW,315,3.0,13.0,71,0.00,,---,0.15,VWS V14.01,2013-01-31 04:30:00,
2013-01-30 23:00:00,28.4,20.5,29.81,NW,315,2.0,11.0,72,0.00,,---,0.15,VWS V14.01,2013-01-31 05:00:00,
2013-01-30 23:30:00,28.2,20.0,29.82,NW,315,2.0,11.0,71,0.00,,---,0.15,VWS V14.01,2013-01-31 05:30:00,